Weather History for KADM - December, 2012

Change the Weather History Date:

Wednesday, December 26, 2012

  Actual Average Record
Temperature  
Mean Temperature 26 °F -  
Max Temperature 32 °F 51 °F 80 °F (2008)
Min Temperature 19 °F 31 °F 19 °F (1998)
Degree Days  
Heating Degree Days 40    
Moisture  
Dew Point 19 °F    
Average Humidity 85    
Maximum Humidity 100    
Minimum Humidity 69    
Precipitation  
Precipitation 0.00 in - - ()
Sea Level Pressure  
Sea Level Pressure 30.16 in    
Wind  
Wind Speed 8 mph (NNW)    
Max Wind Speed 13 mph    
Max Gust Speed 16 mph    
Visibility 10 miles    
Events      
Averages and records for this station are not official NWS values.
T = Trace of Precipitation, MM = Missing Value Source: NWS Daily Summary

Daily Weather History Graph

Daily Weather History Graph

Search for Another Location

Airport or City:

Trip Planner

Search our weather history database for the weather conditions in past years. The results will help you decide how hot, cold, wet, or windy it might be!

Date:

Astronomy

Dec. 26, 2012 Rise Set
Actual Time 7:32 AM CST 5:25 PM CST
Civil Twilight 7:04 AM CST 5:53 PM CST
Nautical Twilight 6:33 AM CST 6:24 PM CST
Astronomical Twilight 6:02 AM CST 6:55 PM CST
Moon 4:18 PM CST (12/26) 5:58 AM CST (12/26)
Length of Visible Light 10h 48m
Length of Day
9h 52m
Waxing Gibbous, 97% of the Moon is Illuminated
Dec 26
Waxing Gibbous
Dec 28
Full
Jan 4
Last Quarter
Jan 11
New
Jan 18
First Quarter

Hourly Weather History & Observations

Time (CST) Temp. Windchill Dew Point Humidity Pressure Visibility Wind Dir Wind Speed Gust Speed Precip Events Conditions
12:15 AM 26.6 °F 17.5 °F 21.2 °F 80% 30.18 in 10.0 mi North 9.2 mph - N/A   Unknown
12:35 AM 26.6 °F 16.8 °F 21.2 °F 80% 30.18 in 10.0 mi NNW 10.4 mph - N/A   Unknown
12:55 AM 24.8 °F 13.4 °F 19.4 °F 80% 30.18 in 10.0 mi NW 12.7 mph - N/A   Unknown
1:15 AM 23.0 °F 14.7 °F 19.4 °F 86% 30.17 in 10.0 mi NNW 6.9 mph - N/A   Unknown
1:35 AM 23.0 °F 12.4 °F 19.4 °F 86% 30.17 in 10.0 mi NNW 10.4 mph - N/A   Unknown
1:55 AM 23.0 °F 13.9 °F 17.6 °F 80% 30.17 in 10.0 mi NNW 8.1 mph - N/A   Unknown
2:15 AM 23.0 °F 13.1 °F 17.6 °F 80% 30.17 in 10.0 mi NNW 9.2 mph - N/A   Unknown
2:35 AM 23.0 °F 13.9 °F 17.6 °F 80% 30.17 in 10.0 mi NNW 8.1 mph - N/A   Unknown
2:55 AM 21.2 °F 10.9 °F 17.6 °F 86% 30.17 in 10.0 mi NNW 9.2 mph - N/A   Unknown
3:15 AM 21.2 °F 10.1 °F 17.6 °F 86% 30.17 in 10.0 mi NNW 10.4 mph - N/A   Unknown
3:35 AM 21.2 °F 10.9 °F 15.8 °F 80% 30.17 in 10.0 mi NNW 9.2 mph - N/A   Unknown
3:55 AM 21.2 °F 10.1 °F 15.8 °F 80% 30.17 in 10.0 mi NNW 10.4 mph 16.1 mph N/A   Unknown
4:15 AM 21.2 °F 12.6 °F 15.8 °F 80% 30.17 in 10.0 mi NNW 6.9 mph - N/A   Unknown
4:35 AM 21.2 °F 10.9 °F 15.8 °F 80% 30.17 in 10.0 mi NNW 9.2 mph - N/A   Unknown
5:15 AM 19.4 °F 9.5 °F 14.0 °F 80% 30.18 in 10.0 mi NNW 8.1 mph - N/A   Unknown
5:35 AM 19.4 °F 11.5 °F 14.0 °F 80% 30.19 in 10.0 mi NW 5.8 mph - N/A   Unknown
3:55 PM 32.0 °F - 23.0 °F 69% 30.18 in 10.0 mi Calm Calm - N/A   Clear
10:35 PM 23.0 °F - 23.0 °F 100% 30.13 in 10.0 mi Calm Calm - N/A   Unknown
10:55 PM 23.0 °F - 23.0 °F 100% 30.13 in 10.0 mi Calm Calm - N/A   Unknown
11:15 PM 23.0 °F - 23.0 °F 100% 30.13 in 10.0 mi Calm Calm - N/A   Unknown
11:35 PM 23.0 °F 18.4 °F 23.0 °F 100% 30.13 in 10.0 mi SW 3.5 mph - N/A   Unknown
11:55 PM 23.0 °F - 23.0 °F 100% 30.12 in 10.0 mi Calm Calm - N/A   Unknown